RH
100 95 92 84 67 56 54 67 77 75 60 65 75 72 68 65 62 60 70 84 90 91 93 96 96 98 97 96 94 92 91 89 88 90 89 86 86 84 83 83 83 83 84
99 100 100 96 98 72 55 57 72 76 62 62 73 74 68 68 64 62 68 84 84 89 91 92 91 92 90 97 97 98 92 92 93 95 94 90 91 93 92 88 89 87 88
100 100 100 100 98 73 53 55 72 74 65 63 70 72 70 68 66 67 71 78 84 88 88 85 87 92 96 90 90 89 89 94 96 96 89 92 96 92 87 87 86 89 87
99 100 100 100 99 77 61 58 69 76 66 63 67 72 72 70 68 70 73 77 79 85 91 89 92 90 92 94 98 97 95 92 92 93 87 87 91 92 91 88 84 90 89
96 100 100 100 98 80 72 53 63 68 66 68 67 74 74 73 70 72 76 76 73 77 85 92 88 86 89 90 88 90 95 91 94 90 94 92 92 88 94 91 92 89 90
100 100 100 100 100 95 83 67 56 72 64 63 77 82 82 79 77 75 72 76 75 76 79 86 85 87 85 89 93 93 87 89 94 89 90 92 94 93 93 92 93 88 89
100 100 100 100 100 98 95 83 69 74 78 69 80 96 97 90 86 82 77 78 77 75 76 77 81 84 88 89 90 91 89 88 89 91 94 91 93 93 92 91 92 90 89
100 100 100 100 99 100 100 89 75 81 80 72 76 92 99 98 98 93 85 82 79 77 79 78 78 82 82 83 87 88 92 92 90 90 91 92 91 90 89 89 90 89 87
100 100 100 100 100 99 100 98 84 66 71 87 65 70 99 98 98 92 96 89 84 82 80 80 81 80 81 82 81 88 85 85 88 90 90 90 90 90 89 90 90 85 85
100 100 100 100 99 100 100 98 88 70 66 84 76 53 58 74 94 99 97 94 90 87 84 82 82 80 81 80 78 75 83 86 88 88 90 91 90 91 90 89 87 84 83
99 100 100 100 100 100 100 100 96 80 66 68 77 71 72 75 74 93 98 100 99 96 89 83 79 79 81 80 78 76 75 80 86 88 86 88 89 89 89 93 81 85 87
100 100 100 100 100 100 100 99 96 86 78 67 76 71 66 76 84 84 97 96 94 100 99 90 85 81 80 79 77 75 74 76 76 85 86 82 87 87 88 85 93 93 91
100 100 100 100 100 100 100 100 100 92 84 75 70 72 74 70 60 66 62 97 96 95 96 95 88 84 83 79 77 74 75 76 74 79 84 85 83 84 82 86 93 93 93
95 100 100 100 100 100 100 100 100 98 91 82 76 75 72 74 68 62 59 72 94 98 93 84 85 80 77 75 71 71 74 75 75 72 78 83 83 84 83 81 81 85 88
100 99 100 100 100 100 100 100 100 100 99 89 79 79 73 73 74 67 61 56 57 94 96 87 80 66 69 75 70 73 74 73 75 74 72 76 80 83 83 81 82 80 84
86 99 99 99 100 100 99 100 100 100 100 97 90 81 78 70 76 74 68 63 58 56 66 67 62 60 58 62 63 68 70 74 72 72 74 74 77 81 82 83 79 81 80
100 90 91 94 99 100 100 100 100 100 100 100 97 92 82 76 76 79 75 70 68 63 64 61 64 60 65 62 63 63 69 73 78 76 77 77 76 77 83 84 82 80 78
100 100 100 100 100 100 99 100 100 100 100 100 100 96 89 85 80 82 80 79 74 70 66 67 71 72 68 65 64 65 68 70 72 69 72 76 77 78 82 85 84 84 81
91 97 100 100 100 100 100 100 98 98 98 99 100 100 96 93 90 85 86 84 80 76 74 69 71 76 75 72 80 83 77 75 75 73 75 80 80 81 83 84 90 86 85
73 70 77 90 93 98 99 100 100 100 100 95 97 100 99 99 99 96 96 90 87 87 84 80 76 81 80 82 81 82 96 97 91 92 87 89 89 90 92 85 96 92 91
75 74 68 74 92 89 90 99 99 100 100 100 100 98 94 99 94 93 97 99 96 94 93 91 84 84 90 89 94 87 94 91 97 98 100 99 100 100 96 96 100 98 96
71 73 75 66 70 72 76 77 86 99 100 100 100 100 100 100 100 97 98 97 97 97 96 94 93 91 91 90 89 91 97 100 98 98 100 100 100 99 98 99 96 98 98
58 55 61 58 53 57 61 66 65 74 83 98 100 100 100 100 100 100 100 100 98 98 92 95 97 97 93 92 88 97 100 96 96 92 100 100 100 100 100 99 100 99 100
43 58 58 52 50 45 45 48 63 69 71 76 86 100 100 100 100 100 100 100 100 100 100 99 100 96 94 92 89 86 91 99 99 97 98 99 100 99 100 100 100 100 100
54 51 55 62 52 44 38 37 45 60 68 73 83 85 99 99 99 100 100 100 100 100 100 100 100 99 100 96 95 100 100 100 100 100 100 100 100 100 99 100 100 99 99
55 53 58 67 60 52 49 38 35 44 64 74 82 98 100 100 100 100 100 100 100 98 99 100 100 100 100 100 100 99 99 99 99 100 99 98 99 98 98 99 100 100 100
Wind_Speed
33 37 34 33 35 35 36 34 33 30 26 26 25 24 22 20 18 17 18 18 18 17 16 15 16 15 15 14 13 13 13 13 13 11 10 10 10 10 9 8 8 7 6
35 36 32 33 32 36 37 35 35 33 29 27 27 25 23 21 19 18 18 19 19 18 17 16 15 14 14 14 14 13 13 13 11 10 10 10 10 9 9 8 9 9 11
40 41 36 35 33 35 35 34 33 31 28 27 27 26 24 22 20 19 18 19 18 18 17 16 15 15 15 14 14 13 13 13 11 11 11 11 11 11 11 12 12 12 12
40 39 35 33 37 37 36 35 33 32 31 29 28 27 26 24 22 20 19 19 19 19 18 17 17 16 15 14 13 13 13 12 12 12 12 11 11 11 12 12 12 12 11
45 40 35 36 39 42 38 37 36 34 33 30 28 26 25 25 24 22 21 20 19 19 19 19 18 17 16 15 14 14 13 12 12 12 12 12 12 11 11 11 11 12 10
44 39 36 38 41 41 41 41 40 33 34 31 27 24 23 25 25 25 23 22 21 20 20 20 19 19 18 17 15 14 14 13 13 13 12 12 11 11 10 11 11 11 11
43 43 36 38 41 45 42 45 40 36 30 31 27 16 16 22 25 26 26 25 24 23 22 22 22 21 21 19 17 16 15 15 14 14 14 13 13 12 12 11 11 11 12
45 45 40 39 42 40 37 44 41 31 24 38 18 18 3 8 21 27 29 29 28 27 26 25 25 25 23 23 22 20 18 17 17 16 15 15 14 14 14 13 12 11 11
50 50 45 41 44 39 40 42 43 41 28 35 28 12 3 5 5 18 31 31 32 31 30 29 28 27 27 25 23 24 23 21 19 18 18 17 16 15 15 14 13 13 13
47 48 45 46 47 41 39 45 46 43 35 34 32 34 12 13 4 2 15 34 34 35 34 33 32 31 30 28 27 26 27 25 23 21 20 19 18 17 17 16 16 16 16
44 47 45 46 45 43 39 42 44 45 44 32 36 30 19 17 11 4 3 10 31 36 38 37 36 35 35 33 31 30 27 29 29 26 24 21 20 20 19 19 19 19 18
39 46 48 47 46 44 42 46 48 47 46 38 35 30 32 15 11 6 3 5 13 19 35 39 39 39 38 38 36 34 32 32 30 31 28 26 24 22 22 22 21 20 20
34 41 45 44 46 48 45 45 45 47 47 45 43 39 34 32 22 19 9 4 4 10 17 36 41 42 41 40 40 39 37 34 33 34 33 31 28 26 25 24 23 22 22
36 38 43 40 42 43 44 44 44 46 44 44 42 39 38 36 35 30 26 13 2 6 13 13 32 45 45 44 43 40 41 39 37 36 37 36 35 33 29 28 28 27 26
33 31 38 37 37 37 40 43 40 40 42 44 43 41 40 35 37 39 36 33 19 5 8 18 21 28 35 42 46 44 44 43 41 41 40 41 40 40 37 34 32 30 29
41 39 34 27 34 37 39 41 38 37 37 39 40 40 41 36 34 35 40 37 33 27 9 25 30 30 29 32 35 40 44 45 43 43 44 44 44 44 44 41 37 34 33
31 33 33 38 36 41 41 39 39 35 36 36 36 38 40 43 37 39 39 38 36 33 20 22 27 26 29 30 32 34 36 40 43 45 44 47 47 49 48 46 44 39 36
18 21 28 30 33 36 39 42 36 31 33 36 37 36 39 36 39 36 35 36 36 36 31 26 23 26 30 33 34 34 36 37 39 42 44 47 51 52 51 50 49 44 39
16 13 10 15 12 17 22 32 38 37 36 33 37 37 38 38 36 36 35 35 36 37 34 31 26 23 28 28 31 33 36 38 39 40 41 43 47 52 54 55 53 51 47
18 15 12 12 8 4 3 16 23 32 34 38 38 37 35 29 31 33 31 35 34 31 30 30 30 22 25 27 31 33 30 36 39 40 41 43 41 47 53 58 57 55 52
14 12 13 14 6 6 6 1 10 19 33 34 40 48 43 41 45 43 40 37 35 31 28 26 24 23 19 16 28 29 25 28 32 36 34 38 38 42 47 54 58 58 57
9 13 3 10 5 10 6 6 6 6 5 16 32 37 37 38 42 47 47 44 43 39 34 26 24 22 27 29 28 27 22 17 7 29 33 32 36 40 42 47 52 63 63
9 6 9 7 6 5 5 5 6 6 9 9 8 17 31 35 39 43 44 46 45 46 44 35 32 32 30 36 35 28 28 27 24 20 26 24 31 36 38 45 47 55 61
13 9 3 3 2 4 5 6 7 8 9 11 12 13 10 16 32 38 38 43 43 45 46 46 40 34 37 37 40 43 40 31 26 24 26 16 23 27 32 37 42 48 54
14 12 12 10 6 4 6 8 8 9 11 11 12 13 14 16 11 26 36 34 35 39 45 49 48 46 41 38 37 33 26 25 9 14 27 18 14 23 25 30 34 36 40
20 15 13 15 14 10 8 9 10 12 15 15 13 14 13 14 17 14 27 30 25 30 36 37 36 37 45 46 41 38 38 27 14 7 23 23 16 17 5 19 25 28 30
Wind_Direction
178 180 181 184 181 182 183 182 180 180 180 179 179 178 177 173 168 169 169 167 163 160 158 159 164 168 169 168 169 168 169 169 167 167 168 172 172 172 175 170 171 165 158
183 183 183 186 186 186 185 184 184 183 183 183 183 186 183 181 177 175 175 174 173 168 165 164 166 166 169 172 170 169 171 174 169 167 163 167 175 174 166 159 149 152 138
188 187 186 186 189 189 188 187 188 185 184 185 187 190 189 187 186 183 180 180 178 173 174 174 171 171 169 168 165 165 166 165 161 158 154 156 150 145 149 141 138 138 141
192 189 188 187 189 188 192 189 189 185 187 187 189 191 191 191 191 191 188 188 188 182 179 182 177 179 177 177 173 172 171 171 169 167 164 164 157 154 152 149 148 148 143
197 191 186 185 189 189 194 193 194 192 188 187 190 192 195 197 197 196 196 197 198 196 194 189 189 183 186 181 182 181 180 179 178 175 175 172 168 165 162 155 154 155 148
197 191 190 188 188 189 193 197 196 195 193 188 187 190 197 202 204 205 205 204 205 206 204 200 194 196 192 192 190 189 188 189 188 188 183 179 176 173 169 167 164 160 163
196 196 191 188 188 193 195 194 192 189 187 186 174 181 197 207 210 211 212 211 210 212 212 212 207 205 200 199 197 196 199 196 197 197 191 188 185 183 180 178 178 175 171
197 196 196 193 190 189 192 194 191 177 180 188 172 146 157 235 226 219 216 217 216 216 216 217 215 213 214 206 204 202 204 205 203 202 200 197 195 192 191 187 183 184 179
199 199 197 192 192 192 193 194 191 187 179 185 192 165 148 209 153 222 224 221 221 220 221 221 221 221 222 221 217 211 206 209 209 210 208 205 201 199 201 196 191 197 190
200 197 197 195 195 194 194 196 195 194 185 182 194 207 199 154 178 183 223 224 225 226 225 225 225 225 225 226 226 225 212 210 212 214 213 211 209 206 206 202 198 201 197
200 192 194 195 196 198 200 195 193 196 196 190 195 196 200 188 180 140 176 202 224 228 229 229 230 230 229 229 230 231 224 217 216 217 218 221 217 213 211 206 208 206 203
198 193 195 195 199 199 199 200 201 199 198 199 198 200 204 185 185 160 127 170 210 222 227 231 232 234 235 235 235 235 232 227 224 220 221 221 223 220 215 214 211 209 207
196 191 194 194 198 202 203 201 200 202 200 199 202 204 206 210 217 200 166 141 161 197 215 230 234 236 239 239 240 239 237 234 230 225 223 223 226 226 224 218 215 212 211
199 193 195 199 201 201 200 203 203 204 201 206 207 206 211 212 217 220 209 172 135 190 203 217 230 236 239 241 242 243 242 237 234 231 226 225 226 227 224 225 217 216 214
188 185 195 198 200 199 200 204 202 203 201 205 209 210 211 215 215 221 222 214 203 177 219 223 217 233 238 242 244 243 244 243 236 233 231 229 228 228 228 227 221 221 216
195 188 195 201 205 205 204 207 206 206 203 206 208 207 210 214 215 216 216 218 217 226 238 222 228 230 235 238 243 246 246 245 245 239 234 232 230 230 230 228 226 222 218
176 186 198 205 217 212 206 204 207 206 203 206 208 209 211 211 211 213 217 216 218 220 227 239 236 232 230 233 236 241 244 245 246 245 240 235 232 232 230 229 227 222 218
157 181 195 195 191 204 210 210 210 204 203 208 211 212 214 215 213 214 214 215 215 219 217 235 225 221 224 233 238 238 239 242 244 247 245 239 234 233 231 230 227 223 221
97 92 105 172 187 201 195 208 210 208 213 223 217 214 218 217 218 213 209 214 216 220 216 224 233 227 224 229 228 235 238 240 243 246 247 244 238 234 233 230 229 223 223
81 87 83 68 82 90 203 218 217 224 215 215 225 222 219 226 228 216 214 217 218 218 215 213 226 221 219 224 226 222 227 236 240 243 243 243 237 237 237 232 229 226 228
61 66 79 86 93 111 49 39 198 218 223 227 220 222 233 231 226 221 222 219 218 217 217 213 221 225 214 204 210 222 220 230 238 241 241 244 242 235 235 236 232 230 231
66 51 66 74 71 63 45 10 317 288 228 216 218 223 228 227 232 229 226 223 220 215 218 214 214 219 221 222 228 219 213 205 231 233 230 235 238 232 234 236 233 231 231
20 38 41 37 22 10 1 355 323 308 285 263 237 231 232 231 232 231 227 224 225 227 225 219 215 211 219 219 223 219 217 221 224 239 220 225 231 229 236 237 238 233 231
344 332 340 319 5 9 349 332 317 302 284 281 269 257 254 239 234 227 224 228 232 231 229 229 225 225 228 230 230 232 228 224 224 225 219 209 222 220 229 231 235 233 228
349 304 287 276 289 314 331 330 318 309 296 289 282 277 263 260 250 244 236 230 237 238 241 237 237 239 238 240 238 221 201 188 198 202 203 207 199 208 221 226 232 233 229
321 320 290 267 265 270 277 305 320 309 298 299 291 281 275 265 258 257 246 233 230 235 240 241 238 244 247 249 243 233 220 199 186 185 207 190 182 194 202 228 229 229 228